CAPE
0 0 0 0 0 0 0 0 0 0 0 0 0 0 0 0 0 0 0 0 0 0 0 0 0 0 0 0 0 130 1374 1753 1747 1642 1337 1218 1217 1221 1124 1069 767 819 702 648
0 0 0 0 0 0 0 0 0 0 0 0 0 0 0 0 0 0 0 0 0 0 0 0 0 0 0 0 0 0 852 1624 1814 1813 1534 1068 1093 1086 1162 960 827 906 860 896
0 0 0 0 0 0 0 0 0 0 0 0 0 0 0 0 0 0 0 0 0 0 0 0 0 0 0 0 0 84 952 1604 1680 1833 1717 1229 1066 907 888 775 766 772 622 663
0 0 0 0 0 0 0 0 0 0 0 0 0 0 0 0 0 0 0 0 0 0 0 1 16 0 0 0 0 403 1035 1582 1741 1874 1847 1327 1001 875 843 777 649 503 319 223
0 0 0 0 0 0 0 0 0 0 0 0 0 0 0 0 0 0 0 0 0 0 3 73 118 59 0 0 0 439 1250 1504 1732 1968 1997 1388 952 809 784 548 303 271 216 140
0 0 0 0 0 0 0 0 0 0 0 0 0 0 0 0 0 0 0 0 0 16 17 85 129 178 84 32 5 503 1489 1497 1710 1831 1909 1430 1069 915 746 572 246 241 88 55
0 0 0 0 0 0 0 0 0 0 0 0 0 0 0 0 0 0 0 1 0 30 39 77 228 306 242 141 193 711 1450 1492 1568 1677 1762 1332 1028 939 756 393 192 87 78 28
0 0 0 0 0 0 0 0 0 0 0 0 0 0 0 0 0 0 0 0 2 33 42 90 279 440 408 307 238 575 1206 1426 1429 1501 1632 1170 805 785 585 305 131 92 10 6
0 0 0 0 0 0 0 0 0 0 0 0 0 0 0 0 0 0 0 0 0 13 42 94 380 579 591 500 484 405 615 953 1288 1341 1189 875 694 478 268 174 73 13 51 42
0 0 0 0 0 0 0 0 0 0 0 0 0 0 0 0 0 0 0 0 0 2 5 139 515 667 681 631 643 783 882 810 999 1073 659 429 202 46 45 29 25 24 40 32
0 0 0 0 0 0 0 0 0 0 0 0 0 0 0 0 0 0 0 0 0 3 12 49 337 536 715 726 685 581 606 688 498 346 190 44 21 43 61 47 47 25 14 8
0 0 0 0 0 0 0 0 0 0 0 0 0 0 0 0 0 0 0 0 0 0 2 21 165 311 530 493 745 682 482 348 194 126 70 49 53 54 59 32 5 3 5 13
0 0 0 1 0 0 0 0 0 0 0 0 0 0 0 0 0 0 0 0 0 0 18 42 27 214 315 284 448 528 541 433 199 117 68 69 67 35 15 1 2 2 7 2
0 0 0 0 0 0 0 0 0 0 0 0 0 0 0 0 0 0 0 0 0 0 0 1 2 39 91 49 372 351 478 429 177 89 60 42 31 2 3 0 3 4 3 0
0 0 0 0 0 0 0 0 0 0 0 0 0 0 0 0 0 0 0 0 0 0 0 0 0 0 4 6 79 88 250 243 58 33 26 79 4 0 3 11 4 0 0 0
0 0 0 0 0 0 0 0 0 0 0 0 0 0 0 0 0 0 0 0 0 0 0 0 0 0 1 2 32 38 295 206 14 24 19 12 10 8 6 3 0 1 2 0
0 0 0 0 0 0 1 0 0 0 0 0 0 0 0 0 0 2 0 0 0 0 0 0 0 0 0 0 3 2 75 76 26 35 27 9 9 5 4 0 0 0 0 0
0 0 0 0 0 1 0 0 0 0 0 0 0 0 0 0 10 37 40 9 0 0 0 0 23 0 0 0 0 0 3 85 51 22 10 10 6 0 0 1 0 4 1 0
0 0 0 0 0 0 0 0 0 0 0 0 0 0 0 0 10 33 29 59 0 0 0 17 9 0 0 0 0 2 2 55 34 4 8 1 0 0 0 2 12 12 10 5
0 0 0 0 0 0 0 0 0 0 0 0 0 0 0 0 3 0 14 93 77 100 62 31 23 5 6 0 0 1 8 56 34 15 11 5 1 8 3 12 5 17 23 32
0 0 0 0 0 0 0 0 0 0 0 0 0 0 0 0 0 0 3 7 39 71 19 2 3 19 8 5 3 0 3 43 26 16 5 8 1 6 11 7 26 39 17 12
0 0 0 0 0 0 0 0 0 0 0 0 0 0 0 0 0 0 0 0 1 1 1 0 4 2 8 2 4 0 3 49 12 8 10 1 6 6 18 22 16 18 31 25
0 0 0 0 0 0 0 0 0 0 0 0 0 0 0 0 0 0 0 0 0 0 0 1 10 2 9 2 0 0 2 37 7 5 11 1 8 12 11 25 13 6 26 16
0 0 0 0 0 0 0 0 0 0 0 0 0 0 0 0 0 0 2 0 0 0 0 0 0 0 0 0 0 16 13 47 2 6 2 8 10 16 7 16 49 43 16 5
0 0 0 0 0 0 0 0 0 0 0 0 0 0 0 0 0 0 0 0 0 0 0 0 0 0 0 3 0 0 30 10 7 8 5 15 18 3 0 24 9 26 35 7
0 0 0 0 0 0 0 0 0 0 0 0 0 0 0 0 0 0 0 0 0 0 0 0 0 0 0 0 0 0 26 13 4 6 27 25 11 5 0 9 1 20 4 1
CIN
0 0 0 0 0 0 0 0 0 0 0 0 0 0 0 0 0 0 0 0 0 0 0 0 0 0 0 0 0 -289 -131 -113 -106 -101 -46 -50 -61 -51 -34 -19 -28 -21 -20 -11
0 0 0 0 0 0 0 0 0 0 0 0 0 0 0 0 0 0 0 0 0 0 0 0 0 0 0 0 0 0 -279 -171 -153 -92 -28 -68 -91 -67 -42 -29 -24 -23 -22 -17
0 0 0 0 0 0 0 0 0 0 0 0 0 0 0 0 0 0 0 0 0 0 0 0 0 0 0 0 0 -588 -325 -225 -188 -122 -38 -78 -80 -68 -45 -29 -34 -21 -26 -16
0 0 0 0 0 0 0 0 0 0 0 0 0 0 0 0 0 0 0 0 0 0 0 -169 -543 0 0 0 0 -440 -343 -249 -183 -146 -56 -82 -97 -101 -82 -69 -51 -32 -37 -38
0 0 0 0 0 0 0 0 0 0 0 0 0 0 0 0 0 0 0 0 0 0 -428 -413 -447 -520 -1 0 0 -425 -283 -255 -197 -144 -63 -73 -92 -104 -74 -55 -61 -50 -39 -37
0 0 0 0 0 0 0 0 0 0 0 0 0 0 0 0 0 0 0 0 0 -71 -249 -317 -382 -432 -543 -635 -232 -406 -235 -222 -191 -130 -80 -59 -86 -83 -63 -46 -80 -44 -67 -78
0 0 0 0 0 0 0 0 0 0 0 0 0 0 0 0 0 0 0 -64 0 -57 -43 -270 -291 -340 -401 -526 -419 -320 -149 -166 -164 -165 -92 -58 -57 -60 -49 -54 -85 -108 -77 -116
0 0 0 0 0 0 0 0 0 0 0 0 0 0 0 0 0 0 0 0 -158 -172 -160 -146 -198 -218 -292 -367 -415 -274 -145 -110 -83 -60 -82 -52 -47 -35 -32 -30 -41 -94 -130 -156
0 0 0 0 0 0 0 0 0 0 0 0 0 0 0 0 0 0 0 0 0 -201 -150 -114 -102 -143 -153 -191 -200 -182 -235 -126 -31 -32 -76 -79 -40 -27 -51 -90 -94 -160 -105 -82
0 0 0 0 0 0 0 0 0 0 0 0 0 0 0 0 0 0 0 0 0 -95 -168 -51 -6 -22 -44 -76 -122 -86 -74 -87 -43 -16 -64 -54 -38 -19 -29 -161 -167 -112 -78 -79
0 0 0 0 0 0 0 0 0 0 0 0 0 0 0 0 0 0 0 0 0 -120 -210 -105 -8 0 -4 -3 -39 -31 -28 -29 -67 -52 -30 -69 -79 -33 -91 -112 -74 -59 -27 -21
0 0 0 0 0 0 0 0 0 0 0 0 0 0 0 0 0 0 0 0 -2 0 -146 -116 -36 -5 0 -4 0 -4 -20 -21 -46 -79 -61 -37 -32 -44 -70 -42 -84 -20 -1 -13
0 0 0 -1 0 0 0 0 0 0 0 0 0 0 0 0 0 0 0 0 0 0 -2 -15 -52 -5 0 -1 -4 0 0 -3 -61 -52 -68 -41 -31 -39 -33 0 0 -5 0 0
0 0 0 0 0 0 0 0 0 0 0 0 0 0 0 0 0 0 0 0 0 0 0 -2 -11 -49 -16 -13 0 0 0 -2 -14 -19 -21 -12 -35 -1 -3 0 -6 0 0 -1
0 0 0 0 0 0 0 0 0 0 0 0 0 0 0 0 0 0 0 0 0 0 0 0 0 -9 -1 -4 -36 -35 -6 -19 -63 -79 -77 -19 -3 0 -4 0 0 0 0 0
0 0 0 0 0 0 0 0 0 0 0 0 0 0 0 0 0 0 0 0 0 0 0 0 0 0 -8 -1 -39 -20 0 -27 -61 -57 0 -3 -2 0 0 0 0 0 0 0
0 0 0 0 0 0 0 0 0 0 0 0 0 0 0 0 0 -13 0 0 0 0 0 0 0 0 0 0 -2 -40 -11 -8 -55 -30 -25 -7 0 0 0 0 0 0 0 0
0 0 0 0 0 0 0 0 0 0 0 0 0 0 0 0 -18 -18 -9 -13 0 0 0 0 -64 -8 0 0 -5 0 -6 0 -1 -19 -5 -33 0 0 0 0 0 -2 -5 -1
0 0 0 0 0 0 0 0 0 0 0 0 0 0 -17 -6 -10 -25 -42 -19 0 0 0 -17 -29 -21 0 0 0 0 -11 -6 -1 -1 -9 0 0 0 0 -3 -2 -1 -1 -12
0 0 0 0 0 0 0 0 0 0 0 0 0 0 0 0 -9 0 -26 -4 -17 -19 0 -7 -40 -54 -36 -1 0 -1 0 -2 -1 -8 -13 0 0 -2 -10 -12 -21 -1 0 -1
0 0 0 0 0 0 0 0 0 0 0 0 0 0 0 0 0 0 -6 -9 -1 -12 -2 -32 -22 -4 0 0 0 0 0 -11 -13 -38 0 0 -4 0 -3 -7 -4 0 -2 -7
0 0 0 0 0 0 0 0 0 0 0 0 0 0 0 0 0 0 0 -12 -29 -3 -1 0 -6 -1 -1 -1 0 0 0 0 -31 -11 0 -1 0 0 0 -1 0 0 -1 0
0 0 0 0 0 0 0 0 0 0 0 0 0 0 0 0 -3 0 0 0 0 -1 0 -8 -8 -6 0 0 0 0 -18 0 -38 0 0 -1 0 0 0 -2 0 -4 -1 -1
0 0 0 0 0 0 0 0 0 0 0 0 0 0 0 0 0 0 -2 0 0 0 0 0 0 0 0 0 0 -2 -5 -1 0 0 -3 0 0 0 -14 -1 -1 -1 -1 -1
0 0 0 0 0 0 0 0 0 0 0 0 0 0 0 0 0 0 0 0 0 0 0 0 0 0 0 0 0 0 0 -30 -10 -1 -6 -10 0 0 0 0 -1 0 0 -9
0 0 0 0 0 0 0 0 0 0 0 0 0 0 0 0 0 0 0 0 0 0 0 0 0 0 0 0 0 -2 0 -16 -6 -43 -37 -40 -1 -4 -16 -10 -1 0 0 -1
Wind_Speed
nan nan nan nan nan nan nan nan nan nan nan nan nan nan nan nan nan nan nan nan nan nan nan nan nan nan nan nan nan 37 34 31 35 33 37 34 31 32 28 28 26 27 27 30
nan nan nan nan nan nan nan nan nan nan nan nan nan nan nan nan nan nan nan nan nan nan nan nan nan nan nan nan nan nan 29 32 30 31 32 37 35 32 31 31 30 27 28 31
nan nan nan nan nan nan nan nan nan nan nan nan nan nan nan nan nan nan nan nan nan nan nan nan nan nan nan nan nan nan 29 26 27 32 39 41 40 36 36 33 32 26 28 31
nan nan nan nan nan nan nan nan nan nan nan nan nan nan nan nan nan nan nan nan nan nan nan nan nan nan nan nan nan 30 31 25 28 32 34 37 33 33 34 34 30 29 30 31
nan nan nan nan nan nan nan nan nan nan nan nan nan nan nan nan nan nan nan nan nan nan nan nan 38 nan nan nan nan 30 32 32 28 26 33 35 36 36 38 36 32 31 28 27
nan nan nan nan nan nan nan nan nan nan nan nan nan nan nan nan nan nan nan nan nan nan nan nan 45 41 nan nan nan 29 29 29 35 33 33 37 40 43 40 35 31 29 nan nan
nan nan nan nan nan nan nan nan nan nan nan nan nan nan nan nan nan nan nan nan nan nan nan nan 51 51 49 44 26 27 23 27 31 42 39 40 41 43 38 34 31 nan nan nan
nan nan nan nan nan nan nan nan nan nan nan nan nan nan nan nan nan nan nan nan nan nan nan nan 52 53 48 42 31 26 30 33 30 41 50 51 40 34 34 34 31 nan nan nan
nan nan nan nan nan nan nan nan nan nan nan nan nan nan nan nan nan nan nan nan nan nan nan nan 53 51 45 40 37 34 26 33 29 42 49 53 42 32 31 33 nan nan nan nan
nan nan nan nan nan nan nan nan nan nan nan nan nan nan nan nan nan nan nan nan nan nan nan 54 55 50 40 31 31 35 30 34 39 38 48 48 48 nan nan nan nan nan nan nan
nan nan nan nan nan nan nan nan nan nan nan nan nan nan nan nan nan nan nan nan nan nan nan nan 47 47 43 35 29 34 34 37 36 42 49 nan nan nan nan nan nan nan nan nan
nan nan nan nan nan nan nan nan nan nan nan nan nan nan nan nan nan nan nan nan nan nan nan nan 40 42 38 36 31 31 36 41 33 38 nan nan nan nan nan nan nan nan nan nan
nan nan nan nan nan nan nan nan nan nan nan nan nan nan nan nan nan nan nan nan nan nan nan nan nan 43 35 33 39 30 32 35 32 41 nan nan nan nan nan nan nan nan nan nan
nan nan nan nan nan nan nan nan nan nan nan nan nan nan nan nan nan nan nan nan nan nan nan nan nan nan nan nan 40 32 26 26 24 nan nan nan nan nan nan nan nan nan nan nan
nan nan nan nan nan nan nan nan nan nan nan nan nan nan nan nan nan nan nan nan nan nan nan nan nan nan nan nan nan nan 24 27 nan nan nan nan nan nan nan nan nan nan nan nan
nan nan nan nan nan nan nan nan nan nan nan nan nan nan nan nan nan nan nan nan nan nan nan nan nan nan nan nan nan nan 29 27 nan nan nan nan nan nan nan nan nan nan nan nan
nan nan nan nan nan nan nan nan nan nan nan nan nan nan nan nan nan nan nan nan nan nan nan nan nan nan nan nan nan nan nan nan nan nan nan nan nan nan nan nan nan nan nan nan
nan nan nan nan nan nan nan nan nan nan nan nan nan nan nan nan nan nan nan nan nan nan nan nan nan nan nan nan nan nan nan nan nan nan nan nan nan nan nan nan nan nan nan nan
nan nan nan nan nan nan nan nan nan nan nan nan nan nan nan nan nan nan nan nan nan nan nan nan nan nan nan nan nan nan nan nan nan nan nan nan nan nan nan nan nan nan nan nan
nan nan nan nan nan nan nan nan nan nan nan nan nan nan nan nan nan nan nan nan nan 9 nan nan nan nan nan nan nan nan nan nan nan nan nan nan nan nan nan nan nan nan nan nan
nan nan nan nan nan nan nan nan nan nan nan nan nan nan nan nan nan nan nan nan nan nan nan nan nan nan nan nan nan nan nan nan nan nan nan nan nan nan nan nan nan nan nan nan
nan nan nan nan nan nan nan nan nan nan nan nan nan nan nan nan nan nan nan nan nan nan nan nan nan nan nan nan nan nan nan nan nan nan nan nan nan nan nan nan nan nan nan nan
nan nan nan nan nan nan nan nan nan nan nan nan nan nan nan nan nan nan nan nan nan nan nan nan nan nan nan nan nan nan nan nan nan nan nan nan nan nan nan nan nan nan nan nan
nan nan nan nan nan nan nan nan nan nan nan nan nan nan nan nan nan nan nan nan nan nan nan nan nan nan nan nan nan nan nan nan nan nan nan nan nan nan nan nan nan nan nan nan
nan nan nan nan nan nan nan nan nan nan nan nan nan nan nan nan nan nan nan nan nan nan nan nan nan nan nan nan nan nan nan nan nan nan nan nan nan nan nan nan nan nan nan nan
nan nan nan nan nan nan nan nan nan nan nan nan nan nan nan nan nan nan nan nan nan nan nan nan nan nan nan nan nan nan nan nan nan nan nan nan nan nan nan nan nan nan nan nan
Wind_Direction
nan nan nan nan nan nan nan nan nan nan nan nan nan nan nan nan nan nan nan nan nan nan nan nan nan nan nan nan nan 269 272 271 266 253 253 252 254 249 251 253 257 264 268 273
nan nan nan nan nan nan nan nan nan nan nan nan nan nan nan nan nan nan nan nan nan nan nan nan nan nan nan nan nan nan 270 271 265 257 250 251 253 249 248 250 253 258 266 270
nan nan nan nan nan nan nan nan nan nan nan nan nan nan nan nan nan nan nan nan nan nan nan nan nan nan nan nan nan nan 271 276 270 263 252 249 247 242 245 243 250 255 263 269
nan nan nan nan nan nan nan nan nan nan nan nan nan nan nan nan nan nan nan nan nan nan nan nan nan nan nan nan nan 249 265 266 265 265 260 269 263 251 248 247 247 252 258 264
nan nan nan nan nan nan nan nan nan nan nan nan nan nan nan nan nan nan nan nan nan nan nan nan 213 nan nan nan nan 261 261 245 248 256 258 255 257 246 248 248 249 249 252 262
nan nan nan nan nan nan nan nan nan nan nan nan nan nan nan nan nan nan nan nan nan nan nan nan 214 213 nan nan nan 250 272 280 253 237 248 256 259 256 250 246 248 246 nan nan
nan nan nan nan nan nan nan nan nan nan nan nan nan nan nan nan nan nan nan nan nan nan nan nan 212 209 216 227 222 241 271 282 254 249 238 246 247 254 256 255 251 nan nan nan
nan nan nan nan nan nan nan nan nan nan nan nan nan nan nan nan nan nan nan nan nan nan nan nan 208 210 216 217 231 246 264 271 252 232 245 237 237 238 239 247 250 nan nan nan
nan nan nan nan nan nan nan nan nan nan nan nan nan nan nan nan nan nan nan nan nan nan nan nan 193 203 210 215 230 238 254 272 267 245 239 239 232 229 233 239 nan nan nan nan
nan nan nan nan nan nan nan nan nan nan nan nan nan nan nan nan nan nan nan nan nan nan nan 212 200 203 211 212 220 238 247 262 257 254 237 236 237 nan nan nan nan nan nan nan
nan nan nan nan nan nan nan nan nan nan nan nan nan nan nan nan nan nan nan nan nan nan nan nan 213 215 214 207 226 237 243 255 262 258 241 nan nan nan nan nan nan nan nan nan
nan nan nan nan nan nan nan nan nan nan nan nan nan nan nan nan nan nan nan nan nan nan nan nan 226 221 213 215 214 234 242 252 262 259 nan nan nan nan nan nan nan nan nan nan
nan nan nan nan nan nan nan nan nan nan nan nan nan nan nan nan nan nan nan nan nan nan nan nan nan 222 204 206 209 232 247 255 258 267 nan nan nan nan nan nan nan nan nan nan
nan nan nan nan nan nan nan nan nan nan nan nan nan nan nan nan nan nan nan nan nan nan nan nan nan nan nan nan 220 231 240 250 259 nan nan nan nan nan nan nan nan nan nan nan
nan nan nan nan nan nan nan nan nan nan nan nan nan nan nan nan nan nan nan nan nan nan nan nan nan nan nan nan nan nan 251 246 nan nan nan nan nan nan nan nan nan nan nan nan
nan nan nan nan nan nan nan nan nan nan nan nan nan nan nan nan nan nan nan nan nan nan nan nan nan nan nan nan nan nan 245 250 nan nan nan nan nan nan nan nan nan nan nan nan
nan nan nan nan nan nan nan nan nan nan nan nan nan nan nan nan nan nan nan nan nan nan nan nan nan nan nan nan nan nan nan nan nan nan nan nan nan nan nan nan nan nan nan nan
nan nan nan nan nan nan nan nan nan nan nan nan nan nan nan nan nan nan nan nan nan nan nan nan nan nan nan nan nan nan nan nan nan nan nan nan nan nan nan nan nan nan nan nan
nan nan nan nan nan nan nan nan nan nan nan nan nan nan nan nan nan nan nan nan nan nan nan nan nan nan nan nan nan nan nan nan nan nan nan nan nan nan nan nan nan nan nan nan
nan nan nan nan nan nan nan nan nan nan nan nan nan nan nan nan nan nan nan nan nan 257 nan nan nan nan nan nan nan nan nan nan nan nan nan nan nan nan nan nan nan nan nan nan
nan nan nan nan nan nan nan nan nan nan nan nan nan nan nan nan nan nan nan nan nan nan nan nan nan nan nan nan nan nan nan nan nan nan nan nan nan nan nan nan nan nan nan nan
nan nan nan nan nan nan nan nan nan nan nan nan nan nan nan nan nan nan nan nan nan nan nan nan nan nan nan nan nan nan nan nan nan nan nan nan nan nan nan nan nan nan nan nan
nan nan nan nan nan nan nan nan nan nan nan nan nan nan nan nan nan nan nan nan nan nan nan nan nan nan nan nan nan nan nan nan nan nan nan nan nan nan nan nan nan nan nan nan
nan nan nan nan nan nan nan nan nan nan nan nan nan nan nan nan nan nan nan nan nan nan nan nan nan nan nan nan nan nan nan nan nan nan nan nan nan nan nan nan nan nan nan nan
nan nan nan nan nan nan nan nan nan nan nan nan nan nan nan nan nan nan nan nan nan nan nan nan nan nan nan nan nan nan nan nan nan nan nan nan nan nan nan nan nan nan nan nan
nan nan nan nan nan nan nan nan nan nan nan nan nan nan nan nan nan nan nan nan nan nan nan nan nan nan nan nan nan nan nan nan nan nan nan nan nan nan nan nan nan nan nan nan